Total_Precipitation_Accumulation
1.30 1.42 2.06 2.80 3.13 2.53 2.13 1.67 1.28 1.16 1.09 0.84 0.67 0.67 0.98 1.33 1.66 1.94 1.80 1.56 1.15 0.97 1.09 1.62 2.04 1.84 1.57 1.37 1.34 1.41 1.38 1.45 1.32 1.26 1.08 0.92 0.77 0.75 0.73 0.62 0.58 0.62 0.56 0.52 0.56 0.67 0.70 0.74 0.78
1.22 2.02 2.81 3.48 2.97 2.17 2.06 1.65 1.38 1.11 0.80 0.65 0.51 0.53 0.71 0.74 0.68 1.03 1.80 1.82 1.20 0.92 0.99 1.41 2.06 1.81 1.67 1.56 1.55 1.46 1.45 1.52 1.34 1.21 1.04 0.91 0.84 0.82 0.82 0.90 0.93 0.80 0.62 0.56 0.55 0.68 0.70 0.69 0.75
1.47 2.63 3.61 3.43 2.38 1.99 2.15 1.70 1.24 0.87 0.63 0.64 0.59 0.51 0.67 0.84 0.86 1.36 1.89 1.54 1.16 0.95 1.07 1.60 2.01 1.75 1.62 1.60 1.61 1.49 1.54 1.51 1.35 1.15 0.95 0.88 0.89 0.98 1.08 1.10 1.01 0.80 0.65 0.60 0.61 0.68 0.72 0.68 0.66
1.91 3.06 3.17 2.59 2.20 1.87 1.69 1.46 1.05 0.98 0.77 0.58 0.54 0.61 0.59 0.85 1.02 1.40 1.49 1.24 1.16 1.12 1.12 1.57 1.96 1.76 1.59 1.56 1.54 1.51 1.48 1.49 1.39 1.14 0.96 0.90 0.88 0.90 0.98 1.04 0.98 0.81 0.69 0.61 0.66 0.72 0.74 0.71 0.70
2.35 2.90 2.79 2.36 2.12 1.79 1.35 1.17 1.00 1.07 0.98 0.70 0.55 0.74 0.90 1.18 1.32 1.39 1.38 1.34 1.10 1.07 1.12 1.42 1.83 1.66 1.46 1.46 1.54 1.58 1.53 1.48 1.38 1.13 1.02 1.00 0.94 0.89 0.94 0.95 0.89 0.75 0.65 0.63 0.69 0.74 0.78 0.73 0.72
2.61 2.58 2.71 2.57 2.34 1.93 1.53 1.23 1.04 1.01 0.90 0.71 0.65 0.83 1.14 1.60 1.65 1.57 1.34 1.31 1.22 1.09 1.03 1.20 1.55 1.61 1.45 1.41 1.42 1.45 1.48 1.47 1.37 1.09 1.00 0.96 0.96 0.92 0.90 0.90 0.86 0.75 0.74 0.74 0.72 0.71 0.76 0.78 0.75
2.55 2.44 2.38 2.20 2.37 2.42 1.84 1.20 1.16 1.03 1.01 0.82 0.63 0.93 1.21 1.75 1.62 1.61 1.49 1.35 1.39 1.20 1.12 1.14 1.30 1.43 1.61 1.65 1.52 1.41 1.41 1.41 1.38 1.17 1.04 0.98 0.90 0.80 0.77 0.77 0.76 0.77 0.83 0.80 0.73 0.69 0.69 0.73 0.76
2.09 2.04 1.88 1.96 2.25 2.40 1.64 0.98 0.87 0.98 0.98 0.64 0.59 0.90 1.19 1.50 1.49 1.61 1.61 1.45 1.33 1.18 1.11 1.08 1.16 1.18 1.30 1.46 1.58 1.55 1.51 1.48 1.45 1.23 1.08 1.00 0.84 0.73 0.72 0.65 0.68 0.74 0.87 0.95 0.86 0.79 0.77 0.76 0.81
1.95 2.10 2.08 2.23 2.11 1.97 1.32 1.06 0.91 0.79 0.81 0.68 0.59 0.67 1.00 1.12 1.25 1.52 1.61 1.52 1.29 1.08 0.98 0.94 0.97 1.09 1.22 1.36 1.52 1.70 1.63 1.61 1.50 1.29 1.16 1.00 0.76 0.66 0.68 0.63 0.80 0.83 0.89 0.96 0.98 1.00 0.97 0.89 0.82
2.01 2.20 2.19 1.90 1.44 1.36 1.18 1.04 0.94 0.84 0.90 0.87 0.75 0.76 1.06 1.21 1.25 1.36 1.34 1.24 1.11 1.04 0.92 0.78 0.80 0.93 1.05 1.16 1.44 1.53 1.38 1.33 1.24 1.35 1.23 1.03 0.96 0.84 0.56 0.64 0.87 1.03 1.06 1.02 0.99 1.09 0.97 0.75 0.61
1.59 1.74 1.51 1.47 1.13 0.99 1.01 0.95 0.85 0.93 1.05 0.82 0.81 0.88 1.11 1.27 1.27 1.29 1.23 1.06 0.98 0.92 0.85 0.73 0.71 0.72 0.73 0.86 1.06 1.18 1.28 1.35 1.24 1.16 1.12 1.08 0.94 0.76 0.63 0.68 0.70 0.76 0.83 0.78 0.80 0.79 0.64 0.56 0.61
1.38 1.27 1.06 1.16 0.98 0.96 0.98 0.87 0.80 0.82 0.90 0.66 0.68 0.83 1.10 1.21 1.21 1.20 1.09 0.99 0.84 0.80 0.80 0.72 0.58 0.53 0.49 0.56 0.64 0.76 0.95 1.09 1.10 0.92 0.83 0.89 0.91 0.80 0.67 0.67 0.67 0.68 0.72 0.81 0.85 0.84 0.75 0.72 0.70
1.53 1.33 1.09 1.01 0.96 0.91 0.87 0.82 0.74 0.73 0.68 0.68 0.73 0.93 1.07 1.20 1.27 1.33 1.15 0.92 0.80 0.76 0.77 0.70 0.56 0.51 0.44 0.46 0.48 0.49 0.71 0.92 1.01 0.99 0.84 0.80 0.81 0.80 0.74 0.63 0.65 0.60 0.64 0.71 0.76 0.79 0.82 0.91 0.87
1.37 1.23 1.15 1.10 0.97 0.80 0.83 0.81 0.71 0.82 0.72 0.73 0.73 0.83 0.92 1.03 1.07 1.02 0.96 0.79 0.66 0.63 0.72 0.70 0.66 0.64 0.54 0.45 0.45 0.46 0.57 0.72 0.78 0.91 0.91 0.84 0.76 0.73 0.76 0.72 0.73 0.74 0.71 0.72 0.73 0.72 0.85 0.92 0.94
1.06 1.25 1.23 1.10 0.96 0.87 0.82 0.96 0.83 0.87 0.81 0.83 0.79 0.76 0.82 0.86 0.86 0.77 0.68 0.62 0.61 0.58 0.59 0.58 0.60 0.68 0.66 0.61 0.57 0.56 0.65 0.69 0.74 0.80 0.80 0.85 0.76 0.69 0.75 0.78 0.79 0.81 0.81 0.81 0.83 0.85 0.93 0.93 1.01
1.14 1.41 1.58 1.24 1.04 1.00 1.04 1.16 0.99 0.99 0.92 0.89 0.82 0.80 0.76 0.78 0.78 0.74 0.65 0.54 0.55 0.52 0.51 0.54 0.51 0.61 0.71 0.75 0.75 0.77 0.79 0.81 0.87 0.84 0.80 0.78 0.74 0.72 0.80 0.83 0.87 0.93 0.85 0.82 0.91 0.97 1.05 1.05 1.12
1.39 1.41 1.35 1.25 1.02 0.99 1.04 1.06 0.98 1.07 0.99 0.85 0.76 0.72 0.64 0.66 0.67 0.62 0.59 0.52 0.50 0.49 0.50 0.55 0.56 0.63 0.70 0.76 0.85 0.91 0.96 1.03 1.15 1.11 1.07 1.00 0.88 0.90 0.97 1.02 1.05 1.07 1.09 1.01 0.92 0.97 1.07 1.19 1.24
1.30 1.02 0.96 0.97 0.94 0.89 0.94 0.88 0.90 1.02 0.94 0.82 0.70 0.62 0.54 0.56 0.57 0.54 0.54 0.53 0.55 0.51 0.50 0.55 0.64 0.72 0.83 0.97 1.16 1.34 1.41 1.57 1.77 1.71 1.56 1.37 1.21 1.17 1.28 1.26 1.21 1.28 1.39 1.42 1.23 1.28 1.23 1.20 1.30
0.80 0.76 0.77 0.71 0.68 0.73 0.73 0.75 0.78 0.79 0.78 0.70 0.57 0.51 0.48 0.44 0.46 0.47 0.48 0.49 0.49 0.45 0.45 0.50 0.57 0.68 0.79 1.00 1.29 1.68 1.88 2.00 2.01 2.02 1.92 1.71 1.49 1.51 1.68 1.65 1.63 1.65 1.64 1.61 1.56 1.71 1.65 1.39 1.32
0.68 0.72 0.72 0.67 0.60 0.60 0.56 0.58 0.61 0.61 0.53 0.49 0.45 0.41 0.42 0.39 0.41 0.37 0.36 0.37 0.36 0.34 0.33 0.43 0.49 0.59 0.75 1.02 1.30 1.61 1.94 2.00 2.01 2.02 1.98 1.86 1.73 1.73 1.77 1.98 2.09 2.07 2.18 2.16 1.99 2.13 2.14 1.78 1.54
0.64 0.71 0.69 0.70 0.67 0.59 0.53 0.55 0.59 0.55 0.45 0.39 0.36 0.36 0.36 0.33 0.36 0.34 0.33 0.31 0.29 0.26 0.24 0.33 0.39 0.54 0.84 1.18 1.47 1.64 1.90 2.00 2.04 2.00 2.02 2.03 1.98 1.89 1.91 2.03 2.20 2.22 2.30 2.40 2.47 2.42 2.52 2.34 1.94
0.68 0.49 0.45 0.50 0.70 0.72 0.55 0.66 0.56 0.47 0.50 0.46 0.40 0.37 0.36 0.36 0.34 0.32 0.35 0.32 0.25 0.21 0.20 0.27 0.35 0.56 0.91 1.24 1.49 1.72 2.06 2.13 2.07 2.09 2.09 2.09 2.11 2.08 2.15 2.18 2.29 2.32 2.34 2.44 2.54 2.52 2.66 2.73 2.34
0.49 0.40 0.40 0.44 0.57 0.62 0.48 0.49 0.51 0.46 0.51 0.53 0.47 0.44 0.39 0.35 0.30 0.28 0.28 0.28 0.27 0.25 0.27 0.32 0.45 0.67 0.95 1.17 1.43 1.77 2.00 2.09 2.20 2.12 2.10 2.10 2.17 2.19 2.22 2.29 2.46 2.46 2.44 2.41 2.63 2.68 2.77 2.70 2.62
0.34 0.43 0.48 0.48 0.56 0.61 0.34 0.40 0.52 0.47 0.39 0.41 0.43 0.43 0.36 0.32 0.30 0.29 0.30 0.29 0.31 0.32 0.38 0.48 0.63 0.76 0.98 1.19 1.41 1.58 1.80 1.91 2.03 2.12 2.06 2.06 2.13 2.23 2.12 2.04 2.18 2.25 2.29 2.28 2.47 2.65 2.78 2.76 2.79
0.34 0.59 0.80 0.79 0.80 0.65 0.29 0.39 0.53 0.39 0.30 0.31 0.34 0.38 0.35 0.35 0.36 0.40 0.41 0.46 0.53 0.57 0.60 0.68 0.78 0.89 1.01 1.13 1.23 1.29 1.44 1.58 1.60 1.76 1.85 1.98 1.99 2.05 2.09 1.97 1.96 1.99 1.95 1.99 2.12 2.20 2.27 2.41 2.58
0.30 0.47 0.75 0.80 0.70 0.56 0.42 0.59 0.60 0.40 0.33 0.33 0.33 0.39 0.41 0.47 0.53 0.64 0.71 0.79 0.86 0.86 0.86 0.92 0.97 0.96 0.97 1.03 1.09 1.11 1.17 1.25 1.30 1.33 1.36 1.54 1.69 1.74 1.82 1.82 1.76 1.80 1.85 1.86 1.94 1.96 1.98 2.01 2.09
0.28 0.35 0.42 0.53 0.45 0.48 0.49 0.62 0.57 0.42 0.40 0.40 0.41 0.46 0.54 0.72 0.81 0.90 1.00 1.01 1.01 1.00 0.96 0.97 0.99 0.96 0.95 0.98 0.98 0.91 0.89 0.96 1.07 1.08 1.14 1.21 1.29 1.30 1.36 1.45 1.53 1.62 1.67 1.73 1.87 1.94 1.94 1.91 1.89
0.24 0.35 0.48 0.71 0.81 0.73 0.61 0.72 0.72 0.57 0.48 0.45 0.50 0.60 0.77 1.03 1.16 1.27 1.35 1.27 1.19 1.20 1.24 1.13 1.03 0.95 0.91 0.91 0.92 0.84 0.81 0.87 0.91 0.90 0.95 0.94 0.96 0.98 1.03 1.13 1.29 1.51 1.64 1.68 1.75 1.80 1.88 1.93 1.90
0.26 0.37 0.52 0.77 0.87 1.03 1.08 1.13 0.86 0.70 0.66 0.74 0.85 0.94 1.16 1.41 1.56 1.65 1.65 1.55 1.36 1.25 1.24 1.16 1.04 0.90 0.79 0.77 0.83 0.83 0.79 0.82 0.86 0.84 0.79 0.73 0.76 0.83 0.95 0.99 1.12 1.26 1.45 1.63 1.78 1.79 1.79 1.84 1.83
0.35 0.51 0.69 1.11 1.10 1.00 1.19 1.32 0.96 0.78 0.78 0.81 0.89 1.05 1.27 1.39 1.45 1.49 1.44 1.42 1.31 1.22 1.13 1.09 0.96 0.80 0.73 0.77 0.79 0.81 0.73 0.69 0.73 0.74 0.77 0.67 0.63 0.66 0.75 0.89 1.08 1.19 1.27 1.31 1.40 1.48 1.53 1.57 1.63